OneWeb SL0510

operational
NORAD ID: 54128 Int'l Des: 2022-138 Owner: ONEWEBN Country: UK Constellation: oneweb
LEOCIRCULARPOLARONEWEB_TYPE

Über OneWeb SL0510

Beschreibung wird geladen...

Live-Position

3D-Globus wird geladen...

Nächste Überflüge

Höhenverlauf

Altitude vs Time

uPlot chart will show altitude changes over time

Zweizeiliger Elementsatz

1 54128U 22138R 26095.25345126 .00000052 00000-0 96751-4 0 9995
2 54128 87.9141 288.9969 0001257 87.0018 273.1259 13.20772522169659
Epoch: 5. Apr. 2026 • Age: 9 hours

Aktueller Status

Höhe 1193.4 km
Geschwindigkeit 7.26 km/s
Subsatellitenpunkt 72.33°N, 131.58°W
Startdatum 22. Okt. 2022
Alter 3.4 years
Typ internet

Technische Details

Klassifizierung Payload
Masse 148.00 kg
Trockenmasse 140.00 kg
Gesamtmasse 148.00 kg
Länge 1.30 m
Durchmesser 1.00 m
Spannweite 5.00 m
Form Trapezoid+2 pan
Hersteller ONEWUS
Bus-Typ ARROW
Phasenstatus In Orbit
Besitzer/Staat ONEWEBN/UK

Große Konstellationen

Loading constellations...